Regional Weather Roundup
Issued by NWS

Home | Current Version | Previous Version | Text Only | Print | Product List | Glossary Off
Versions: 1 2 3 4 5 6 7 8 9 10 11 12 13 14 15 16 17 18 19 20 21 22 23 24 25 26 27 28 29 30 31 32 33 34 35 36 37 38 39 40 41 42 43 44 45 46 47 48 49 50

000
ASUS45 KTFX 221604
RWRMT
MONTANA HOURLY WEATHER ROUNDUP
NATIONAL WEATHER SERVICE GREAT FALLS MT
1004 AM MDT FRI AUG 22 2014

NOTE: "FAIR" INDICATES FEW OR NO CLOUDS BELOW 12000 FEET WITH NO
SIGNIFICANT WEATHER AND/OR OBSTRUCTIONS TO VISIBILITY.

* THESE STATIONS ARE NOT UNDER NWS QUALITY CONTROL. THEY DO NOT
   REPORT WEATHER SUCH AS PRECIPITATION OR FOG.

MTZ001>007-043-221700-
WEST OF THE DIVIDE
CITY           SKY/WX    TMP DP  RH WIND       PRES   REMARKS
KALISPELL      LGT RAIN  57  46  67 NE12      30.09R
MISSOULA       CLOUDY    59  52  78 CALM      30.06S
BUTTE          CLOUDY    52  45  77 CALM      30.12S
MULLAN PASS    CLOUDY    48  43  83 SE3       30.11R
* ESSEX        N/A       52  45  77 N/A        N/A
* LINCOLN      N/A       53  46  77 E11        N/A
* LOOKOUT PASS N/A       54  47  77 SE2        N/A
* POLSON       N/A       58  48  70 N2         N/A
* RONAN APT    CLOUDY    61  54  78 N/A        N/A
* SEELEY LAKE  N/A       52  50  93 SE1        N/A
* THOMP F APT  CLOUDY    51  45  80 E4         N/A
$$

MTZ008-052>055-221700-
SOUTHWEST MONTANA
CITY           SKY/WX    TMP DP  RH WIND       PRES   REMARKS
BOZEMAN        CLOUDY    54  48  80 CALM      30.11S
DILLON         CLOUDY    52  48  86 NE10      30.10S
* THREE FORKS  CLOUDY    54  36  51 N/A        N/A
* BOULDER HILL N/A       48  44  86 VRB6       N/A
* MONIDA PASS  N/A       48  44  86 E2         N/A
* RAYNOLDS PAS N/A       46  -2  13 N/A        N/A
* WHITEHALL    N/A       53  50  90 N3         N/A
* WISE RIVER   N/A       50  47  89 NW3        N/A
$$

MTZ009>010-012-014-046-048-049-054-221700-
EAST SLOPES AND CENTRAL MONTANA
CITY           SKY/WX    TMP DP  RH WIND       PRES   REMARKS
CUT BANK       CLOUDY    54  48  80 NE12      30.17S
GREAT FALLS    LGT RAIN  52  52 100 NE8       30.13R VSB 3
HELENA         CLOUDY    57  50  78 N6        30.12R
MALMSTROM AFB  RAIN      52  52 100 NE12      30.14F
* CONRAD       CLOUDY    52  52 100 NW7        N/A
* DEARBORN     N/A       52  51  96 VRB5G10    N/A
* EAST GLACIER N/A       46  45  96 NE4        N/A
* MONARCH      N/A       48  45  89 N5         N/A
* PENDROY      N/A       49  48  96 N10        N/A
* ROGERS PASS  N/A       46  46 100 SE2G8      N/A
* SAINT MARY   N/A       47  46  96 SE1        N/A
* SWEET GRASS  N/A       50  50 100 NE20       N/A
$$

MTZ011-013-016-021-035-040-045-047-050-051-221700-
NORTH CENTRAL MONTANA
CITY           SKY/WX    TMP DP  RH WIND       PRES   REMARKS
HAVRE          CLOUDY    61  54  78 E13       30.11S
LEWISTOWN      LGT RAIN  55  54  96 N3        30.12S
* CHESTER      N/A       54  50  86 NE10G18    N/A
* DENTON       N/A       54  52  93 N6         N/A
* GEYSER       N/A       51  50  96 NE5        N/A
* JUDITH GAP   N/A       53  52  96 NW6        N/A
* LOMA         N/A       56  55  96 N2         N/A
$$

MTZ017>020-022>027-061-062-221700-
NORTHEAST MONTANA
CITY           SKY/WX    TMP DP  RH WIND       PRES   REMARKS
GLASGOW        LGT RAIN  61  57  87 E15       30.11R
GLENDIVE       CLOUDY    63  61  93 NE12      30.10S
JORDAN         CLOUDY    63  55  75 E6        30.09S
SIDNEY         CLOUDY    63  59  87 NE7       30.11F
WOLF POINT     LGT RAIN  61  57  87 NE10      30.12R
* BEAVER HILL  N/A       62  60  93 N/A        N/A
* CIRCLE       N/A       60  58  93 NE7G12     N/A
* LINDSAY DVD  N/A       59  58  97 NE14       N/A
* SACO         N/A       59  57  93 NE10       N/A
$$

MTZ028>042-056>058-221700-
SOUTHCENTRAL AND SOUTHEAST MONTANA
CITY           SKY/WX    TMP DP  RH WIND       PRES   REMARKS
BAKER          CLOUDY    66  59  78 CALM      30.09F
BILLINGS       FOG       55  55 100 NE9       30.09S VSB 2 1/2
LIVINGSTON     CLOUDY    57  50  78 E6        30.11R
MILES CITY     CLOUDY    63  55  75 CALM      30.08F
* LAUREL APT   CLOUDY    57  54  90 NE6        N/A
* ROUNDUP APT  CLOUDY    55  52  90 N/A        N/A
* ALZADA       N/A       64  58  81 N1         N/A
* HYSHAM       N/A       58  55  90 E4         N/A
* LAME DEER    N/A       56  54  93 NE5        N/A
* REED POINT   N/A       59  53  81 E4         N/A
* ROSCOE HILL  N/A       54  47  77 NE4        N/A
$$

REGIONAL REPORTS...DAKOTAS
CITY           SKY/WX    TMP DP  RH WIND       PRES   REMARKS
WILLISTON      CLOUDY    64  55  73 E12       30.12R
DICKINSON      PTSUNNY   64  61  90 NE6       30.06S
BEACH          N/A       63  63 100 E7        30.09F
CROSBY         PTSUNNY   63  57  81 NE10G17   30.14R
TIOGA          CLOUDY    63  61  93 NE12      30.15R
WATFORD CITY   CLOUDY    61  57  87 NE8       30.08S
BISMARCK       PTSUNNY   72  64  76 E3        30.04F
GRAND FORKS    CLOUDY    66  64  93 N14       29.99R
FARGO          CLOUDY    72  68  87 N3        29.98R
BUFFALO SD     PTCLDY    64  59  84 SW5       30.03R
RAPID CITY     CLOUDY    64  61  90 NE5       30.08S
$$

REGIONAL REPORTS...WYOMING/IDAHO/WASHINGTON
CITY           SKY/WX    TMP DP  RH WIND       PRES   REMARKS
GILLETTE       PTSUNNY   64  54  70 SE7       30.10S
SHERIDAN       FOG       59  55  87 NE5       30.09S
CODY           CLOUDY    55  52  90 NE5       30.12S
YELLOWSTONE LA CLOUDY    46  43  89 CALM      30.23S
SALMON         PTCLDY    57  52  83 CALM      30.01F
MULLAN PASS    CLOUDY    48  43  83 SE3       30.11S
SAND POINT     PTCLDY    59  50  72 NE17G23   30.02R
SPOKANE        PTSUNNY   55  52  90 N6        30.00R
$$

REGIONAL REPORTS...SASKATCHEWAN
CITY           SKY/WX    TMP DP  RH WIND       PRES   REMARKS
SWIFT CURRENT  LGT RAIN  52  52 100 NE13      30.21R

$$




USA.gov is the U.S. government's official web portal to all federal, state and local government web resources and services.